Terminal Aerodrome Forecast
Issued by NWS Grand Forks, ND

Home | Current Version | Previous Version | Text Only | Print | Product List | Glossary Off
Versions: 1 2 3 4 5 6 7 8 9 10 11 12 13 14 15 16 17 18 19 20 21 22

000
FTUS43 KFGF 281836 AAA
TAFFAR
TAF AMD
KFAR 281836Z 2819/2918 19016G24KT P6SM BKN120
     FM282100 19017G25KT P6SM VCTS BKN050CB
     FM290200 23014KT P6SM BKN100
     FM290700 35012G18KT P6SM VCSH BKN050
     FM291200 35019G27KT P6SM OVC025=

USA.gov is the U.S. government's official web portal to all federal, state and local government web resources and services.